Location: Bédeille
(43.0872°N, 1.1041°E)
Time: 01:27:55
(UTC+00:00)

Cosmos 2322 - Pass Details

Date: 03 February 2023
Orbit: 841 x 853 km, 71.0° (Epoch: 27 March)

Event Time Altitude Azimuth Distance (km) Brightness Sun altitude
Rises 18:51:16 0° 183° (S) 3,404 7.0 -18.7°
Reaches altitude 10° 18:53:48 10° 177° (S) 2,473 6.1 -19.1°
Maximum altitude 18:59:09 44° 107° (ESE) 1,168 4.0 -20.1°
Enters shadow 19:00:21 39° 75° (ENE) 1,269 4.1 -20.3°
